Location: Caucaguita
(10.3578°N, 66.8025°W)
Time: 01:49:06
(UTC+00:00)

USA 215 - Pass Details

Date: 18 November 2025
Orbit: 1101 x 1106 km, 123.0° (Epoch: 02 December)

Event Time Altitude Azimuth Distance (km) Brightness Sun altitude
Exits shadow 23:06:05 22° 65° (ENE) 2,189 4.2 -15.9°
Maximum altitude 23:07:22 23° 48° (NE) 2,123 4.2 -16.2°
Drops below altitude 10° 23:12:18 10° 359° (N) 2,954 5.4 -17.4°
Sets 23:15:18 0° 345° (NNW) 3,912 6.1 -18.1°
